Time,TemperatureF,DewpointF,PressureIn,WindDirection,WindDirectionDegrees,WindSpeedMPH,WindSpeedGustMPH,Humidity,HourlyPrecipIn,Conditions,Clouds,dailyrainin,SoftwareType,DateUTC
2013-03-08 00:01:00,36.8,35.0,29.12,West,270,0.0,-999.0,91,0.00,,,0.00,Rainwise IP-100,2013-03-08 08:01:00,
2013-03-08 00:06:00,36.7,35.0,29.12,West,270,0.0,-999.0,91,0.00,,,0.00,Rainwise IP-100,2013-03-08 08:06:00,
2013-03-08 00:11:00,36.5,35.0,29.12,West,270,0.0,-999.0,91,0.00,,,0.00,Rainwise IP-100,2013-03-08 08:11:00,
2013-03-08 00:16:00,36.2,33.0,29.12,West,270,0.0,-999.0,92,0.00,,,0.00,Rainwise IP-100,2013-03-08 08:16:00,
2013-03-08 00:21:00,36.0,33.0,29.12,West,270,0.0,-999.0,92,0.00,,,0.00,Rainwise IP-100,2013-03-08 08:21:00,
2013-03-08 00:26:00,35.7,35.0,29.11,WSW,247,2.8,-999.0,93,0.00,,,0.00,Rainwise IP-100,2013-03-08 08:26:00,
2013-03-08 00:31:00,35.4,33.0,29.11,WSW,247,0.0,-999.0,93,0.00,,,0.00,Rainwise IP-100,2013-03-08 08:31:00,
2013-03-08 00:36:00,35.5,35.0,29.12,East,90,1.2,-999.0,93,0.00,,,0.00,Rainwise IP-100,2013-03-08 08:36:00,
2013-03-08 00:41:00,35.4,33.0,29.11,SE,135,2.8,-999.0,94,0.00,,,0.00,Rainwise IP-100,2013-03-08 08:41:00,
2013-03-08 00:46:00,35.2,33.0,29.12,SSW,202,0.0,-999.0,94,0.00,,,0.00,Rainwise IP-100,2013-03-08 08:46:00,
2013-03-08 00:51:00,35.0,33.0,29.12,SSW,202,0.0,-999.0,94,0.00,,,0.00,Rainwise IP-100,2013-03-08 08:51:00,
2013-03-08 00:56:00,34.8,33.0,29.12,SSW,202,0.0,-999.0,94,0.00,,,0.00,Rainwise IP-100,2013-03-08 08:56:00,
2013-03-08 01:01:00,34.6,33.0,29.12,SSW,202,0.0,-999.0,95,0.00,,,0.00,Rainwise IP-100,2013-03-08 09:01:00,
2013-03-08 01:06:00,34.4,33.0,29.11,SSW,202,0.0,-999.0,95,0.00,,,0.00,Rainwise IP-100,2013-03-08 09:06:00,
2013-03-08 01:11:00,34.2,33.0,29.12,SSW,202,0.0,-999.0,96,0.00,,,0.00,Rainwise IP-100,2013-03-08 09:11:00,
2013-03-08 01:16:00,33.9,33.0,29.12,SW,225,1.6,-999.0,95,0.00,,,0.00,Rainwise IP-100,2013-03-08 09:16:00,
2013-03-08 01:21:00,33.8,33.0,29.12,SW,225,1.6,-999.0,95,0.00,,,0.00,Rainwise IP-100,2013-03-08 09:21:00,
2013-03-08 01:26:00,33.9,33.0,29.12,WSW,247,0.0,-999.0,95,0.00,,,0.00,Rainwise IP-100,2013-03-08 09:26:00,
2013-03-08 01:31:00,34.0,33.0,29.12,WSW,247,0.0,-999.0,95,0.00,,,0.00,Rainwise IP-100,2013-03-08 09:31:00,
2013-03-08 01:36:00,33.9,33.0,29.11,WSW,247,0.0,-999.0,95,0.00,,,0.00,Rainwise IP-100,2013-03-08 09:36:00,
2013-03-08 01:41:00,33.9,33.0,29.11,WSW,247,0.0,-999.0,95,0.00,,,0.00,Rainwise IP-100,2013-03-08 09:41:00,
2013-03-08 01:45:00,34.0,33.0,29.11,NNW,337,1.6,-999.0,95,0.00,,,0.00,Rainwise IP-100,2013-03-08 09:45:00,
2013-03-08 01:50:00,34.0,33.0,29.11,WSW,247,0.0,-999.0,96,0.00,,,0.00,Rainwise IP-100,2013-03-08 09:50:00,
2013-03-08 01:55:00,33.9,33.0,29.11,WSW,247,1.4,-999.0,96,0.00,,,0.00,Rainwise IP-100,2013-03-08 09:55:00,
2013-03-08 02:00:00,34.0,33.0,29.11,WSW,247,0.0,-999.0,96,0.00,,,0.00,Rainwise IP-100,2013-03-08 10:00:00,
2013-03-08 02:05:00,34.1,33.0,29.11,WSW,247,0.0,-999.0,96,0.00,,,0.00,Rainwise IP-100,2013-03-08 10:05:00,
2013-03-08 02:10:00,33.9,33.0,29.11,WSW,247,0.0,-999.0,96,0.00,,,0.00,Rainwise IP-100,2013-03-08 10:10:00,
2013-03-08 02:16:00,33.7,33.0,29.11,WSW,247,0.0,-999.0,96,0.00,,,0.00,Rainwise IP-100,2013-03-08 10:16:00,
2013-03-08 02:20:00,33.6,33.0,29.10,WSW,247,1.6,-999.0,96,0.00,,,0.00,Rainwise IP-100,2013-03-08 10:20:00,
2013-03-08 02:26:00,33.4,32.0,29.10,WSW,247,1.6,-999.0,96,0.00,,,0.00,Rainwise IP-100,2013-03-08 10:26:00,
2013-03-08 02:30:00,33.2,32.0,29.10,WSW,247,0.0,-999.0,96,0.00,,,0.00,Rainwise IP-100,2013-03-08 10:30:00,
2013-03-08 02:35:00,33.3,32.0,29.10,WSW,247,0.0,-999.0,96,0.00,,,0.00,Rainwise IP-100,2013-03-08 10:35:00,
2013-03-08 02:40:00,33.3,32.0,29.10,WSW,247,1.9,-999.0,97,0.00,,,0.00,Rainwise IP-100,2013-03-08 10:40:00,
2013-03-08 02:46:00,33.0,32.0,29.10,WSW,247,0.0,-999.0,97,0.00,,,0.00,Rainwise IP-100,2013-03-08 10:46:00,
2013-03-08 02:50:00,32.9,32.0,29.10,WSW,247,0.0,-999.0,97,0.00,,,0.00,Rainwise IP-100,2013-03-08 10:50:00,
2013-03-08 02:55:00,32.9,32.0,29.09,WSW,247,0.0,-999.0,97,0.00,,,0.00,Rainwise IP-100,2013-03-08 10:55:00,
2013-03-08 03:00:00,32.8,32.0,29.09,WSW,247,0.0,-999.0,97,0.00,,,0.00,Rainwise IP-100,2013-03-08 11:00:00,
2013-03-08 03:05:00,32.6,32.0,29.09,WSW,247,1.4,-999.0,97,0.00,,,0.00,Rainwise IP-100,2013-03-08 11:05:00,
2013-03-08 03:10:00,32.3,31.0,29.09,WSW,247,2.1,-999.0,97,0.00,,,0.00,Rainwise IP-100,2013-03-08 11:10:00,
2013-03-08 03:15:00,32.0,31.0,29.09,WSW,247,2.3,-999.0,97,0.00,,,0.00,Rainwise IP-100,2013-03-08 11:15:00,
2013-03-08 03:20:00,32.1,31.0,29.08,WSW,247,1.2,-999.0,97,0.00,,,0.00,Rainwise IP-100,2013-03-08 11:20:00,
2013-03-08 03:26:00,32.3,31.0,29.08,WSW,247,0.0,-999.0,97,0.00,,,0.00,Rainwise IP-100,2013-03-08 11:26:00,
2013-03-08 03:30:00,32.5,32.0,29.09,WSW,247,1.4,-999.0,97,0.00,,,0.00,Rainwise IP-100,2013-03-08 11:30:00,
2013-03-08 03:35:00,32.6,32.0,29.08,WSW,247,0.0,-999.0,97,0.00,,,0.00,Rainwise IP-100,2013-03-08 11:35:00,
2013-03-08 03:41:00,32.5,32.0,29.08,WSW,247,0.0,-999.0,97,0.00,,,0.00,Rainwise IP-100,2013-03-08 11:41:00,
2013-03-08 03:45:00,32.3,31.0,29.08,WSW,247,0.0,-999.0,97,0.00,,,0.00,Rainwise IP-100,2013-03-08 11:45:00,
2013-03-08 03:51:00,32.1,31.0,29.08,WSW,247,0.0,-999.0,97,0.00,,,0.00,Rainwise IP-100,2013-03-08 11:51:00,
2013-03-08 03:55:00,32.0,31.0,29.08,WSW,247,0.0,-999.0,97,0.00,,,0.00,Rainwise IP-100,2013-03-08 11:55:00,
2013-03-08 04:01:00,31.9,32.0,29.08,WSW,247,0.0,-999.0,98,0.00,,,0.00,Rainwise IP-100,2013-03-08 12:01:00,
2013-03-08 04:05:00,31.6,32.0,29.08,WSW,247,0.0,-999.0,98,0.00,,,0.00,Rainwise IP-100,2013-03-08 12:05:00,
2013-03-08 04:11:00,31.4,31.0,29.09,WSW,247,0.0,-999.0,98,0.00,,,0.00,Rainwise IP-100,2013-03-08 12:11:00,
2013-03-08 04:15:00,31.2,31.0,29.09,WSW,247,0.0,-999.0,98,0.00,,,0.00,Rainwise IP-100,2013-03-08 12:15:00,
2013-03-08 04:21:00,31.1,31.0,29.09,WSW,247,0.0,-999.0,98,0.00,,,0.00,Rainwise IP-100,2013-03-08 12:21:00,
2013-03-08 04:26:00,31.0,31.0,29.09,WSW,247,0.0,-999.0,98,0.00,,,0.00,Rainwise IP-100,2013-03-08 12:26:00,
2013-03-08 04:30:00,30.9,31.0,29.09,WSW,247,1.6,-999.0,98,0.00,,,0.00,Rainwise IP-100,2013-03-08 12:30:00,
2013-03-08 04:36:00,30.7,31.0,29.09,WSW,247,0.0,-999.0,98,0.00,,,0.00,Rainwise IP-100,2013-03-08 12:36:00,
2013-03-08 04:41:00,30.6,31.0,29.09,WSW,247,2.1,-999.0,98,0.00,,,0.00,Rainwise IP-100,2013-03-08 12:41:00,
2013-03-08 04:46:00,30.7,31.0,29.09,WSW,247,1.6,-999.0,98,0.00,,,0.00,Rainwise IP-100,2013-03-08 12:46:00,
2013-03-08 04:50:00,30.9,31.0,29.09,WSW,247,0.0,-999.0,98,0.00,,,0.00,Rainwise IP-100,2013-03-08 12:50:00,
2013-03-08 04:55:00,31.1,31.0,29.09,WSW,247,0.0,-999.0,98,0.00,,,0.00,Rainwise IP-100,2013-03-08 12:55:00,
2013-03-08 05:01:00,31.5,32.0,29.09,WSW,247,0.0,-999.0,98,0.00,,,0.00,Rainwise IP-100,2013-03-08 13:01:00,
2013-03-08 05:06:00,31.7,32.0,29.09,East,90,2.3,-999.0,98,0.00,,,0.00,Rainwise IP-100,2013-03-08 13:06:00,
2013-03-08 05:11:00,31.5,32.0,29.09,East,90,1.2,-999.0,98,0.00,,,0.00,Rainwise IP-100,2013-03-08 13:11:00,
2013-03-08 05:16:00,31.3,31.0,29.09,East,90,0.0,-999.0,98,0.00,,,0.00,Rainwise IP-100,2013-03-08 13:16:00,
2013-03-08 05:20:00,31.1,31.0,29.09,East,90,0.0,-999.0,98,0.00,,,0.00,Rainwise IP-100,2013-03-08 13:20:00,
2013-03-08 05:26:00,30.8,31.0,29.09,East,90,0.0,-999.0,98,0.00,,,0.00,Rainwise IP-100,2013-03-08 13:26:00,
2013-03-08 05:31:00,30.6,31.0,29.09,West,270,2.1,-999.0,98,0.00,,,0.00,Rainwise IP-100,2013-03-08 13:31:00,
2013-03-08 05:36:00,30.5,31.0,29.09,West,270,0.0,-999.0,98,0.00,,,0.00,Rainwise IP-100,2013-03-08 13:36:00,
2013-03-08 05:41:00,30.4,31.0,29.09,West,270,1.4,-999.0,99,0.00,,,0.00,Rainwise IP-100,2013-03-08 13:41:00,
2013-03-08 05:46:00,30.4,31.0,29.09,West,270,0.0,-999.0,99,0.00,,,0.00,Rainwise IP-100,2013-03-08 13:46:00,
2013-03-08 05:51:00,30.4,31.0,29.09,West,270,0.0,-999.0,99,0.00,,,0.00,Rainwise IP-100,2013-03-08 13:51:00,
2013-03-08 05:56:00,30.4,31.0,29.09,West,270,0.0,-999.0,99,0.00,,,0.00,Rainwise IP-100,2013-03-08 13:56:00,
2013-03-08 06:00:00,30.3,31.0,29.09,West,270,0.0,-999.0,99,0.00,,,0.00,Rainwise IP-100,2013-03-08 14:00:00,
2013-03-08 06:06:00,30.0,31.0,29.10,West,270,1.6,-999.0,99,0.00,,,0.00,Rainwise IP-100,2013-03-08 14:06:00,
2013-03-08 06:11:00,30.1,31.0,29.10,West,270,0.0,-999.0,99,0.00,,,0.00,Rainwise IP-100,2013-03-08 14:11:00,
2013-03-08 06:16:00,30.2,31.0,29.10,West,270,2.1,-999.0,99,0.00,,,0.00,Rainwise IP-100,2013-03-08 14:16:00,
2013-03-08 06:21:00,30.2,31.0,29.09,West,270,0.0,-999.0,99,0.00,,,0.00,Rainwise IP-100,2013-03-08 14:21:00,
2013-03-08 06:26:00,30.5,31.0,29.09,West,270,0.0,-999.0,99,0.00,,,0.00,Rainwise IP-100,2013-03-08 14:26:00,
2013-03-08 06:31:00,30.8,31.0,29.10,West,270,0.0,-999.0,99,0.00,,,0.00,Rainwise IP-100,2013-03-08 14:31:00,
2013-03-08 06:36:00,30.6,31.0,29.10,West,270,0.0,-999.0,99,0.00,,,0.00,Rainwise IP-100,2013-03-08 14:36:00,
2013-03-08 06:41:00,30.3,31.0,29.10,West,270,0.0,-999.0,99,0.00,,,0.00,Rainwise IP-100,2013-03-08 14:41:00,
2013-03-08 06:46:00,30.1,31.0,29.10,West,270,0.0,-999.0,99,0.00,,,0.00,Rainwise IP-100,2013-03-08 14:46:00,
2013-03-08 06:51:00,29.9,31.0,29.10,West,270,1.4,-999.0,99,0.00,,,0.00,Rainwise IP-100,2013-03-08 14:51:00,
2013-03-08 06:56:00,29.8,31.0,29.10,West,270,0.0,-999.0,99,0.00,,,0.00,Rainwise IP-100,2013-03-08 14:56:00,
2013-03-08 07:01:00,30.4,31.0,29.10,West,270,0.0,-999.0,99,0.00,,,0.00,Rainwise IP-100,2013-03-08 15:01:00,
2013-03-08 07:06:00,31.3,31.0,29.10,West,270,0.0,-999.0,99,0.00,,,0.00,Rainwise IP-100,2013-03-08 15:06:00,
2013-03-08 07:11:00,31.5,32.0,29.10,West,270,0.0,-999.0,100,0.00,,,0.00,Rainwise IP-100,2013-03-08 15:11:00,
2013-03-08 07:16:00,31.3,31.0,29.11,West,270,0.0,-999.0,100,0.00,,,0.00,Rainwise IP-100,2013-03-08 15:16:00,
2013-03-08 07:21:00,31.2,31.0,29.10,West,270,1.6,-999.0,100,0.00,,,0.00,Rainwise IP-100,2013-03-08 15:21:00,
2013-03-08 07:26:00,31.0,31.0,29.11,West,270,0.0,-999.0,99,0.00,,,0.00,Rainwise IP-100,2013-03-08 15:26:00,
2013-03-08 07:31:00,30.8,31.0,29.11,West,270,0.0,-999.0,99,0.00,,,0.00,Rainwise IP-100,2013-03-08 15:31:00,
2013-03-08 07:36:00,30.9,31.0,29.11,West,270,0.0,-999.0,100,0.00,,,0.00,Rainwise IP-100,2013-03-08 15:36:00,
2013-03-08 07:41:00,31.2,31.0,29.11,West,270,1.2,-999.0,100,0.00,,,0.00,Rainwise IP-100,2013-03-08 15:41:00,
2013-03-08 07:46:00,31.8,32.0,29.12,West,270,0.0,-999.0,100,0.00,,,0.00,Rainwise IP-100,2013-03-08 15:46:00,
2013-03-08 07:51:00,32.6,33.0,29.11,West,270,1.2,-999.0,100,0.00,,,0.00,Rainwise IP-100,2013-03-08 15:51:00,
2013-03-08 07:56:00,33.5,35.0,29.12,West,270,0.0,-999.0,100,0.00,,,0.00,Rainwise IP-100,2013-03-08 15:56:00,
2013-03-08 08:01:00,34.7,35.0,29.12,West,270,0.0,-999.0,100,0.00,,,0.00,Rainwise IP-100,2013-03-08 16:01:00,
2013-03-08 08:06:00,36.2,36.0,29.12,West,270,0.0,-999.0,100,0.00,,,0.00,Rainwise IP-100,2013-03-08 16:06:00,
2013-03-08 08:11:00,37.4,37.0,29.12,West,270,1.2,-999.0,99,0.00,,,0.00,Rainwise IP-100,2013-03-08 16:11:00,
2013-03-08 08:16:00,38.2,38.0,29.12,SSE,157,1.4,-999.0,98,0.00,,,0.00,Rainwise IP-100,2013-03-08 16:16:00,
2013-03-08 08:21:00,39.2,39.0,29.12,SSE,157,0.0,-999.0,98,0.00,,,0.00,Rainwise IP-100,2013-03-08 16:21:00,
2013-03-08 08:26:00,40.4,40.0,29.13,SSE,157,1.6,-999.0,98,0.00,,,0.00,Rainwise IP-100,2013-03-08 16:26:00,
2013-03-08 08:31:00,41.5,41.0,29.12,SSE,157,0.0,-999.0,97,0.00,,,0.00,Rainwise IP-100,2013-03-08 16:31:00,
2013-03-08 08:36:00,42.5,42.0,29.12,SE,135,3.7,-999.0,95,0.00,,,0.00,Rainwise IP-100,2013-03-08 16:36:00,
2013-03-08 08:41:00,42.9,41.0,29.13,SE,135,1.6,-999.0,92,0.00,,,0.00,Rainwise IP-100,2013-03-08 16:41:00,
2013-03-08 08:46:00,42.9,40.0,29.13,ESE,112,4.0,-999.0,90,0.00,,,0.00,Rainwise IP-100,2013-03-08 16:46:00,
2013-03-08 08:51:00,42.8,40.0,29.13,East,90,3.7,-999.0,90,0.00,,,0.00,Rainwise IP-100,2013-03-08 16:51:00,
2013-03-08 08:56:00,42.4,39.0,29.13,East,90,4.0,-999.0,90,0.00,,,0.00,Rainwise IP-100,2013-03-08 16:56:00,
2013-03-08 09:01:00,42.7,40.0,29.13,ESE,112,1.4,-999.0,89,0.00,,,0.00,Rainwise IP-100,2013-03-08 17:01:00,
2013-03-08 09:06:00,43.4,39.0,29.13,ESE,112,1.6,-999.0,86,0.00,,,0.00,Rainwise IP-100,2013-03-08 17:06:00,
2013-03-08 09:11:00,44.3,39.0,29.13,ESE,112,2.1,-999.0,83,0.00,,,0.00,Rainwise IP-100,2013-03-08 17:11:00,
2013-03-08 09:16:00,45.2,39.0,29.13,ESE,112,2.1,-999.0,80,0.00,,,0.00,Rainwise IP-100,2013-03-08 17:16:00,
2013-03-08 09:21:00,45.7,39.0,29.13,NE,45,0.0,-999.0,78,0.00,,,0.00,Rainwise IP-100,2013-03-08 17:21:00,
2013-03-08 09:26:00,46.0,39.0,29.13,ESE,112,0.0,-999.0,76,0.00,,,0.00,Rainwise IP-100,2013-03-08 17:26:00,
2013-03-08 09:31:00,46.5,39.0,29.13,East,90,1.9,-999.0,74,0.00,,,0.00,Rainwise IP-100,2013-03-08 17:31:00,
2013-03-08 09:36:00,46.8,38.0,29.13,SSE,157,2.6,-999.0,72,0.00,,,0.00,Rainwise IP-100,2013-03-08 17:36:00,
2013-03-08 09:41:00,47.6,38.0,29.13,SSE,157,2.6,-999.0,71,0.00,,,0.00,Rainwise IP-100,2013-03-08 17:41:00,
2013-03-08 09:46:00,48.6,40.0,29.13,SE,135,2.3,-999.0,70,0.00,,,0.00,Rainwise IP-100,2013-03-08 17:46:00,
2013-03-08 09:51:00,49.4,39.0,29.13,SSE,157,2.3,-999.0,68,0.00,,,0.00,Rainwise IP-100,2013-03-08 17:51:00,
2013-03-08 09:56:00,49.9,38.0,29.13,SSE,157,1.9,-999.0,65,0.00,,,0.00,Rainwise IP-100,2013-03-08 17:56:00,
2013-03-08 10:01:00,50.1,38.0,29.13,ESE,112,1.4,-999.0,64,0.00,,,0.00,Rainwise IP-100,2013-03-08 18:01:00,
2013-03-08 10:06:00,50.4,38.0,29.12,ESE,112,1.6,-999.0,63,0.00,,,0.00,Rainwise IP-100,2013-03-08 18:06:00,
2013-03-08 10:11:00,50.9,39.0,29.13,SSE,157,1.6,-999.0,62,0.00,,,0.00,Rainwise IP-100,2013-03-08 18:11:00,
2013-03-08 10:16:00,51.7,39.0,29.12,SSE,157,1.9,-999.0,61,0.00,,,0.00,Rainwise IP-100,2013-03-08 18:16:00,
2013-03-08 10:21:00,52.3,38.0,29.12,SSE,157,1.6,-999.0,59,0.00,,,0.00,Rainwise IP-100,2013-03-08 18:21:00,
2013-03-08 10:26:00,52.9,38.0,29.12,SSE,157,4.2,-999.0,58,0.00,,,0.00,Rainwise IP-100,2013-03-08 18:26:00,
2013-03-08 10:31:00,53.1,39.0,29.12,ESE,112,3.3,-999.0,59,0.00,,,0.00,Rainwise IP-100,2013-03-08 18:31:00,
2013-03-08 10:36:00,53.1,39.0,29.12,ESE,112,1.9,-999.0,59,0.00,,,0.00,Rainwise IP-100,2013-03-08 18:36:00,
2013-03-08 10:41:00,53.1,38.0,29.12,SSE,157,2.3,-999.0,58,0.00,,,0.00,Rainwise IP-100,2013-03-08 18:41:00,
2013-03-08 10:46:00,53.6,38.0,29.12,SE,135,2.1,-999.0,57,0.00,,,0.00,Rainwise IP-100,2013-03-08 18:46:00,
2013-03-08 10:51:00,54.1,39.0,29.12,ESE,112,3.7,-999.0,56,0.00,,,0.00,Rainwise IP-100,2013-03-08 18:51:00,
2013-03-08 10:56:00,54.5,39.0,29.12,ESE,112,1.9,-999.0,56,0.00,,,0.00,Rainwise IP-100,2013-03-08 18:56:00,
2013-03-08 11:01:00,55.4,40.0,29.11,ESE,112,3.3,-999.0,56,0.00,,,0.00,Rainwise IP-100,2013-03-08 19:01:00,
2013-03-08 11:06:00,55.6,40.0,29.12,ESE,112,2.6,-999.0,55,0.00,,,0.00,Rainwise IP-100,2013-03-08 19:06:00,
2013-03-08 11:11:00,56.1,39.0,29.11,ESE,112,3.5,-999.0,54,0.00,,,0.00,Rainwise IP-100,2013-03-08 19:11:00,
2013-03-08 11:16:00,56.9,39.0,29.11,NNE,22,1.9,-999.0,50,0.00,,,0.00,Rainwise IP-100,2013-03-08 19:16:00,
2013-03-08 11:21:00,57.9,37.0,29.11,ESE,112,0.0,-999.0,45,0.00,,,0.00,Rainwise IP-100,2013-03-08 19:21:00,
2013-03-08 11:26:00,59.2,37.0,29.11,North,360,1.2,-999.0,44,0.00,,,0.00,Rainwise IP-100,2013-03-08 19:26:00,
2013-03-08 11:31:00,60.6,38.0,29.11,NNW,337,3.7,-999.0,43,0.00,,,0.00,Rainwise IP-100,2013-03-08 19:31:00,
2013-03-08 11:36:00,61.8,37.0,29.11,NNW,337,7.5,-999.0,39,0.00,,,0.00,Rainwise IP-100,2013-03-08 19:36:00,
2013-03-08 11:41:00,62.1,35.0,29.10,North,360,3.0,-999.0,36,0.00,,,0.00,Rainwise IP-100,2013-03-08 19:41:00,
2013-03-08 11:46:00,61.9,33.0,29.11,North,360,1.9,-999.0,34,0.00,,,0.00,Rainwise IP-100,2013-03-08 19:46:00,
2013-03-08 11:51:00,62.2,35.0,29.11,West,270,2.6,-999.0,35,0.00,,,0.00,Rainwise IP-100,2013-03-08 19:51:00,
2013-03-08 11:56:00,62.6,36.0,29.11,ENE,67,2.3,-999.0,36,0.00,,,0.00,Rainwise IP-100,2013-03-08 19:56:00,
2013-03-08 12:01:00,62.4,35.0,29.11,WSW,247,6.3,-999.0,35,0.00,,,0.00,Rainwise IP-100,2013-03-08 20:01:00,
2013-03-08 12:06:00,62.1,35.0,29.11,WSW,247,3.0,-999.0,36,0.00,,,0.00,Rainwise IP-100,2013-03-08 20:06:00,
2013-03-08 12:11:00,62.0,37.0,29.10,East,90,2.3,-999.0,40,0.00,,,0.00,Rainwise IP-100,2013-03-08 20:11:00,
2013-03-08 12:16:00,61.7,38.0,29.10,SW,225,6.3,-999.0,41,0.00,,,0.00,Rainwise IP-100,2013-03-08 20:16:00,
2013-03-08 12:21:00,61.1,38.0,29.10,SW,225,10.3,-999.0,42,0.00,,,0.00,Rainwise IP-100,2013-03-08 20:21:00,
2013-03-08 12:26:00,60.6,37.0,29.10,SW,225,12.4,-999.0,42,0.00,,,0.00,Rainwise IP-100,2013-03-08 20:26:00,
2013-03-08 12:31:00,60.3,38.0,29.10,WSW,247,7.9,-999.0,43,0.00,,,0.00,Rainwise IP-100,2013-03-08 20:31:00,
2013-03-08 12:36:00,60.3,38.0,29.10,SW,225,4.2,-999.0,44,0.00,,,0.00,Rainwise IP-100,2013-03-08 20:36:00,
2013-03-08 12:41:00,60.3,38.0,29.10,SSW,202,2.6,-999.0,44,0.00,,,0.00,Rainwise IP-100,2013-03-08 20:41:00,
2013-03-08 12:46:00,60.3,38.0,29.10,SSE,157,5.6,-999.0,44,0.00,,,0.00,Rainwise IP-100,2013-03-08 20:46:00,
2013-03-08 12:51:00,60.4,38.0,29.09,SSE,157,11.0,-999.0,44,0.00,,,0.00,Rainwise IP-100,2013-03-08 20:51:00,
2013-03-08 12:56:00,60.1,38.0,29.09,SSE,157,5.1,-999.0,44,0.00,,,0.00,Rainwise IP-100,2013-03-08 20:56:00,
2013-03-08 13:01:00,60.3,38.0,29.09,South,180,7.5,-999.0,44,0.00,,,0.00,Rainwise IP-100,2013-03-08 21:01:00,
2013-03-08 13:06:00,60.9,39.0,29.09,SW,225,3.5,-999.0,45,0.00,,,0.00,Rainwise IP-100,2013-03-08 21:06:00,
2013-03-08 13:11:00,61.4,39.0,29.09,SSW,202,1.9,-999.0,44,0.00,,,0.00,Rainwise IP-100,2013-03-08 21:11:00,
2013-03-08 13:16:00,61.6,39.0,29.09,SW,225,4.9,-999.0,43,0.00,,,0.00,Rainwise IP-100,2013-03-08 21:16:00,
2013-03-08 13:21:00,61.9,40.0,29.09,SSE,157,6.1,-999.0,44,0.00,,,0.00,Rainwise IP-100,2013-03-08 21:21:00,
2013-03-08 13:26:00,62.0,40.0,29.08,SSE,157,11.2,-999.0,44,0.00,,,0.00,Rainwise IP-100,2013-03-08 21:26:00,
2013-03-08 13:31:00,62.1,39.0,29.08,SSW,202,2.3,-999.0,43,0.00,,,0.00,Rainwise IP-100,2013-03-08 21:31:00,
2013-03-08 13:36:00,62.1,39.0,29.08,SW,225,5.6,-999.0,43,0.00,,,0.00,Rainwise IP-100,2013-03-08 21:36:00,
2013-03-08 13:41:00,62.2,39.0,29.08,SW,225,5.6,-999.0,43,0.00,,,0.00,Rainwise IP-100,2013-03-08 21:41:00,
2013-03-08 13:46:00,62.3,40.0,29.08,SSE,157,11.9,-999.0,43,0.00,,,0.00,Rainwise IP-100,2013-03-08 21:46:00,
2013-03-08 13:51:00,62.1,39.0,29.08,West,270,8.2,-999.0,42,0.00,,,0.00,Rainwise IP-100,2013-03-08 21:51:00,
2013-03-08 13:56:00,62.4,40.0,29.08,SW,225,2.6,-999.0,43,0.00,,,0.00,Rainwise IP-100,2013-03-08 21:56:00,
2013-03-08 14:01:00,62.7,40.0,29.08,SSE,157,4.4,-999.0,43,0.00,,,0.00,Rainwise IP-100,2013-03-08 22:01:00,
2013-03-08 14:06:00,62.8,40.0,29.07,West,270,2.3,-999.0,43,0.00,,,0.00,Rainwise IP-100,2013-03-08 22:06:00,
2013-03-08 14:11:00,63.2,39.0,29.08,SSW,202,1.6,-999.0,42,0.00,,,0.00,Rainwise IP-100,2013-03-08 22:11:00,
2013-03-08 14:16:00,63.8,39.0,29.08,WSW,247,9.6,-999.0,40,0.00,,,0.00,Rainwise IP-100,2013-03-08 22:16:00,
2013-03-08 14:21:00,64.0,39.0,29.07,WSW,247,1.2,-999.0,40,0.00,,,0.00,Rainwise IP-100,2013-03-08 22:21:00,
2013-03-08 14:26:00,64.0,39.0,29.08,WSW,247,5.1,-999.0,40,0.00,,,0.00,Rainwise IP-100,2013-03-08 22:26:00,
2013-03-08 14:31:00,63.6,39.0,29.08,SW,225,2.8,-999.0,40,0.00,,,0.00,Rainwise IP-100,2013-03-08 22:31:00,
2013-03-08 14:36:00,63.4,38.0,29.08,WSW,247,7.2,-999.0,39,0.00,,,0.00,Rainwise IP-100,2013-03-08 22:36:00,
2013-03-08 14:41:00,63.6,39.0,29.08,WSW,247,7.7,-999.0,40,0.00,,,0.00,Rainwise IP-100,2013-03-08 22:41:00,
2013-03-08 14:46:00,63.6,39.0,29.08,West,270,6.8,-999.0,40,0.00,,,0.00,Rainwise IP-100,2013-03-08 22:46:00,
2013-03-08 14:51:00,63.6,39.0,29.08,SW,225,7.9,-999.0,40,0.00,,,0.00,Rainwise IP-100,2013-03-08 22:51:00,
2013-03-08 14:56:00,63.5,39.0,29.08,WSW,247,2.1,-999.0,40,0.00,,,0.00,Rainwise IP-100,2013-03-08 22:56:00,
2013-03-08 15:01:00,63.5,39.0,29.08,SSW,202,6.5,-999.0,40,0.00,,,0.00,Rainwise IP-100,2013-03-08 23:01:00,
2013-03-08 15:06:00,63.5,39.0,29.08,WSW,247,5.6,-999.0,40,0.00,,,0.00,Rainwise IP-100,2013-03-08 23:06:00,
2013-03-08 15:11:00,63.5,39.0,29.08,SSW,202,5.8,-999.0,40,0.00,,,0.00,Rainwise IP-100,2013-03-08 23:11:00,
2013-03-08 15:16:00,63.5,38.0,29.08,WSW,247,7.5,-999.0,39,0.00,,,0.00,Rainwise IP-100,2013-03-08 23:16:00,
2013-03-08 15:21:00,63.5,38.0,29.08,SSW,202,13.3,-999.0,39,0.00,,,0.00,Rainwise IP-100,2013-03-08 23:21:00,
2013-03-08 15:26:00,63.1,38.0,29.08,SW,225,8.6,-999.0,39,0.00,,,0.00,Rainwise IP-100,2013-03-08 23:26:00,
2013-03-08 15:31:00,62.8,38.0,29.08,SW,225,12.8,-999.0,40,0.00,,,0.00,Rainwise IP-100,2013-03-08 23:31:00,
2013-03-08 15:36:00,62.8,38.0,29.08,SW,225,11.4,-999.0,40,0.00,,,0.00,Rainwise IP-100,2013-03-08 23:36:00,
2013-03-08 15:41:00,62.8,39.0,29.08,SW,225,9.1,-999.0,41,0.00,,,0.00,Rainwise IP-100,2013-03-08 23:41:00,
2013-03-08 15:46:00,62.7,38.0,29.08,SW,225,7.5,-999.0,41,0.00,,,0.00,Rainwise IP-100,2013-03-08 23:46:00,
2013-03-08 15:51:00,62.6,38.0,29.08,SSW,202,8.9,-999.0,41,0.00,,,0.00,Rainwise IP-100,2013-03-08 23:51:00,
2013-03-08 15:56:00,62.6,38.0,29.08,SSW,202,8.6,-999.0,41,0.00,,,0.00,Rainwise IP-100,2013-03-08 23:56:00,
2013-03-08 16:01:00,62.6,39.0,29.08,SSW,202,3.7,-999.0,42,0.00,,,0.00,Rainwise IP-100,2013-03-09 00:01:00,
2013-03-08 16:06:00,62.5,39.0,29.08,WSW,247,4.0,-999.0,42,0.00,,,0.00,Rainwise IP-100,2013-03-09 00:06:00,
2013-03-08 16:11:00,62.6,39.0,29.08,SW,225,4.2,-999.0,42,0.00,,,0.00,Rainwise IP-100,2013-03-09 00:11:00,
2013-03-08 16:16:00,62.7,40.0,29.08,SW,225,5.4,-999.0,43,0.00,,,0.00,Rainwise IP-100,2013-03-09 00:16:00,
2013-03-08 16:21:00,62.8,39.0,29.08,WSW,247,5.4,-999.0,42,0.00,,,0.00,Rainwise IP-100,2013-03-09 00:21:00,
2013-03-08 16:26:00,62.6,39.0,29.09,SSW,202,8.9,-999.0,42,0.00,,,0.00,Rainwise IP-100,2013-03-09 00:26:00,
2013-03-08 16:31:00,62.3,40.0,29.09,SW,225,3.7,-999.0,43,0.00,,,0.00,Rainwise IP-100,2013-03-09 00:31:00,
2013-03-08 16:36:00,62.2,39.0,29.09,SSW,202,8.2,-999.0,43,0.00,,,0.00,Rainwise IP-100,2013-03-09 00:36:00,
2013-03-08 16:41:00,62.1,39.0,29.09,SW,225,5.6,-999.0,43,0.00,,,0.00,Rainwise IP-100,2013-03-09 00:41:00,
2013-03-08 16:46:00,61.9,39.0,29.09,SW,225,5.8,-999.0,43,0.00,,,0.00,Rainwise IP-100,2013-03-09 00:46:00,
2013-03-08 16:51:00,61.7,39.0,29.09,SW,225,7.0,-999.0,44,0.00,,,0.00,Rainwise IP-100,2013-03-09 00:51:00,
2013-03-08 16:56:00,61.7,39.0,29.09,WSW,247,6.3,-999.0,44,0.00,,,0.00,Rainwise IP-100,2013-03-09 00:56:00,
2013-03-08 17:01:00,61.6,39.0,29.09,WSW,247,4.2,-999.0,44,0.00,,,0.00,Rainwise IP-100,2013-03-09 01:01:00,
2013-03-08 17:06:00,61.4,39.0,29.10,WSW,247,4.7,-999.0,44,0.00,,,0.00,Rainwise IP-100,2013-03-09 01:06:00,
2013-03-08 17:11:00,61.0,39.0,29.10,West,270,4.2,-999.0,44,0.00,,,0.00,Rainwise IP-100,2013-03-09 01:11:00,
2013-03-08 17:16:00,60.6,39.0,29.10,WSW,247,2.3,-999.0,45,0.00,,,0.00,Rainwise IP-100,2013-03-09 01:16:00,
2013-03-08 17:21:00,60.1,39.0,29.10,WSW,247,2.6,-999.0,46,0.00,,,0.00,Rainwise IP-100,2013-03-09 01:21:00,
2013-03-08 17:26:00,59.8,39.0,29.11,West,270,2.8,-999.0,46,0.00,,,0.00,Rainwise IP-100,2013-03-09 01:26:00,
2013-03-08 17:31:00,59.3,39.0,29.12,WSW,247,2.8,-999.0,47,0.00,,,0.00,Rainwise IP-100,2013-03-09 01:31:00,
2013-03-08 17:36:00,58.4,39.0,29.12,WSW,247,4.0,-999.0,49,0.00,,,0.00,Rainwise IP-100,2013-03-09 01:36:00,
2013-03-08 17:41:00,57.6,39.0,29.12,WSW,247,0.0,-999.0,50,0.00,,,0.00,Rainwise IP-100,2013-03-09 01:41:00,
2013-03-08 17:46:00,57.1,39.0,29.12,WNW,292,2.6,-999.0,50,0.00,,,0.00,Rainwise IP-100,2013-03-09 01:46:00,
2013-03-08 17:51:00,56.5,39.0,29.12,West,270,1.2,-999.0,52,0.00,,,0.00,Rainwise IP-100,2013-03-09 01:51:00,
2013-03-08 17:56:00,55.8,38.0,29.13,West,270,0.0,-999.0,52,0.00,,,0.00,Rainwise IP-100,2013-03-09 01:56:00,
2013-03-08 18:01:00,55.3,38.0,29.13,West,270,0.0,-999.0,53,0.00,,,0.00,Rainwise IP-100,2013-03-09 02:01:00,
2013-03-08 18:06:00,54.5,39.0,29.13,West,270,0.0,-999.0,55,0.00,,,0.00,Rainwise IP-100,2013-03-09 02:06:00,
2013-03-08 18:11:00,53.4,39.0,29.14,WSW,247,2.6,-999.0,58,0.00,,,0.00,Rainwise IP-100,2013-03-09 02:11:00,
2013-03-08 18:16:00,52.2,38.0,29.14,WSW,247,3.0,-999.0,60,0.00,,,0.00,Rainwise IP-100,2013-03-09 02:16:00,
2013-03-08 18:21:00,51.2,39.0,29.15,WNW,292,1.9,-999.0,62,0.00,,,0.00,Rainwise IP-100,2013-03-09 02:21:00,
2013-03-08 18:26:00,50.5,39.0,29.14,WSW,247,2.3,-999.0,64,0.00,,,0.00,Rainwise IP-100,2013-03-09 02:26:00,
2013-03-08 18:31:00,49.6,39.0,29.15,WSW,247,1.6,-999.0,66,0.00,,,0.00,Rainwise IP-100,2013-03-09 02:31:00,
2013-03-08 18:36:00,49.1,39.0,29.15,WSW,247,2.3,-999.0,68,0.00,,,0.00,Rainwise IP-100,2013-03-09 02:36:00,
2013-03-08 18:41:00,48.6,39.0,29.15,WSW,247,0.0,-999.0,69,0.00,,,0.00,Rainwise IP-100,2013-03-09 02:41:00,
2013-03-08 18:46:00,47.8,39.0,29.15,WSW,247,2.3,-999.0,71,0.00,,,0.00,Rainwise IP-100,2013-03-09 02:46:00,
2013-03-08 18:51:00,47.1,38.0,29.15,WSW,247,2.3,-999.0,72,0.00,,,0.00,Rainwise IP-100,2013-03-09 02:51:00,
2013-03-08 18:56:00,46.5,39.0,29.15,WSW,247,3.0,-999.0,75,0.00,,,0.00,Rainwise IP-100,2013-03-09 02:56:00,
2013-03-08 19:01:00,46.0,39.0,29.15,SW,225,2.8,-999.0,76,0.00,,,0.00,Rainwise IP-100,2013-03-09 03:01:00,
2013-03-08 19:06:00,46.1,39.0,29.16,SW,225,0.0,-999.0,76,0.00,,,0.00,Rainwise IP-100,2013-03-09 03:06:00,
2013-03-08 19:11:00,46.3,38.0,29.16,SW,225,1.4,-999.0,75,0.00,,,0.00,Rainwise IP-100,2013-03-09 03:11:00,
2013-03-08 19:16:00,46.4,38.0,29.17,SW,225,0.0,-999.0,75,0.00,,,0.00,Rainwise IP-100,2013-03-09 03:16:00,
2013-03-08 19:21:00,46.2,38.0,29.17,SW,225,2.1,-999.0,75,0.00,,,0.00,Rainwise IP-100,2013-03-09 03:21:00,
2013-03-08 19:26:00,45.4,38.0,29.17,WSW,247,0.0,-999.0,77,0.00,,,0.00,Rainwise IP-100,2013-03-09 03:26:00,
2013-03-08 19:31:00,44.6,39.0,29.17,WSW,247,0.0,-999.0,79,0.00,,,0.00,Rainwise IP-100,2013-03-09 03:31:00,
2013-03-08 19:36:00,44.6,39.0,29.17,West,270,2.6,-999.0,80,0.00,,,0.00,Rainwise IP-100,2013-03-09 03:36:00,
2013-03-08 19:41:00,44.4,38.0,29.18,WSW,247,2.6,-999.0,80,0.00,,,0.00,Rainwise IP-100,2013-03-09 03:41:00,
2013-03-08 19:46:00,44.5,39.0,29.18,WSW,247,1.4,-999.0,80,0.00,,,0.00,Rainwise IP-100,2013-03-09 03:46:00,
2013-03-08 19:51:00,44.9,38.0,29.18,NNE,22,0.0,-999.0,78,0.00,,,0.00,Rainwise IP-100,2013-03-09 03:51:00,
2013-03-08 19:56:00,44.7,38.0,29.18,NNE,22,0.0,-999.0,78,0.00,,,0.00,Rainwise IP-100,2013-03-09 03:56:00,
2013-03-08 20:01:00,44.0,38.0,29.19,West,270,0.0,-999.0,79,0.00,,,0.00,Rainwise IP-100,2013-03-09 04:01:00,
2013-03-08 20:06:00,43.5,38.0,29.19,West,270,1.4,-999.0,80,0.00,,,0.00,Rainwise IP-100,2013-03-09 04:06:00,
2013-03-08 20:11:00,43.3,38.0,29.19,West,270,0.0,-999.0,82,0.00,,,0.00,Rainwise IP-100,2013-03-09 04:11:00,
2013-03-08 20:16:00,43.1,38.0,29.19,WSW,247,3.0,-999.0,82,0.00,,,0.00,Rainwise IP-100,2013-03-09 04:16:00,
2013-03-08 20:21:00,42.8,38.0,29.19,WSW,247,3.5,-999.0,82,0.00,,,0.00,Rainwise IP-100,2013-03-09 04:21:00,
2013-03-08 20:26:00,42.7,38.0,29.20,WSW,247,0.0,-999.0,83,0.00,,,0.00,Rainwise IP-100,2013-03-09 04:26:00,
2013-03-08 20:31:00,42.7,38.0,29.20,WSW,247,0.0,-999.0,83,0.00,,,0.00,Rainwise IP-100,2013-03-09 04:31:00,
2013-03-08 20:36:00,42.5,38.0,29.20,WSW,247,0.0,-999.0,83,0.00,,,0.00,Rainwise IP-100,2013-03-09 04:36:00,
2013-03-08 20:41:00,42.0,37.0,29.20,WSW,247,0.0,-999.0,83,0.00,,,0.00,Rainwise IP-100,2013-03-09 04:41:00,
2013-03-08 20:46:00,41.4,37.0,29.20,WSW,247,0.0,-999.0,84,0.00,,,0.00,Rainwise IP-100,2013-03-09 04:46:00,
2013-03-08 20:51:00,41.2,37.0,29.20,WNW,292,0.0,-999.0,85,0.00,,,0.00,Rainwise IP-100,2013-03-09 04:51:00,
2013-03-08 20:56:00,41.1,37.0,29.21,WNW,292,0.0,-999.0,86,0.00,,,0.00,Rainwise IP-100,2013-03-09 04:56:00,
2013-03-08 21:00:00,41.0,37.0,29.21,WNW,292,0.0,-999.0,86,0.00,,,0.00,Rainwise IP-100,2013-03-09 05:00:00,
2013-03-08 21:05:00,40.8,37.0,29.21,WNW,292,1.4,-999.0,86,0.00,,,0.00,Rainwise IP-100,2013-03-09 05:05:00,
2013-03-08 21:10:00,40.6,37.0,29.21,WSW,247,0.0,-999.0,86,0.00,,,0.00,Rainwise IP-100,2013-03-09 05:10:00,
2013-03-08 21:15:00,40.2,37.0,29.21,WSW,247,0.0,-999.0,87,0.00,,,0.00,Rainwise IP-100,2013-03-09 05:15:00,
2013-03-08 21:20:00,39.9,37.0,29.22,WSW,247,0.0,-999.0,87,0.00,,,0.00,Rainwise IP-100,2013-03-09 05:20:00,
2013-03-08 21:25:00,39.9,37.0,29.23,WSW,247,0.0,-999.0,88,0.00,,,0.00,Rainwise IP-100,2013-03-09 05:25:00,
2013-03-08 21:30:00,39.9,37.0,29.23,WNW,292,1.2,-999.0,88,0.00,,,0.00,Rainwise IP-100,2013-03-09 05:30:00,
2013-03-08 21:35:00,39.7,37.0,29.23,WNW,292,0.0,-999.0,88,0.00,,,0.00,Rainwise IP-100,2013-03-09 05:35:00,
2013-03-08 21:40:00,39.6,37.0,29.23,WNW,292,0.0,-999.0,88,0.00,,,0.00,Rainwise IP-100,2013-03-09 05:40:00,
2013-03-08 21:45:00,39.7,37.0,29.23,WNW,292,0.0,-999.0,89,0.00,,,0.00,Rainwise IP-100,2013-03-09 05:45:00,
2013-03-08 21:50:00,39.7,38.0,29.23,WNW,292,0.0,-999.0,90,0.00,,,0.00,Rainwise IP-100,2013-03-09 05:50:00,
2013-03-08 21:55:00,39.6,37.0,29.24,WNW,292,0.0,-999.0,89,0.00,,,0.00,Rainwise IP-100,2013-03-09 05:55:00,
2013-03-08 22:00:00,39.5,37.0,29.24,WNW,292,1.6,-999.0,89,0.00,,,0.00,Rainwise IP-100,2013-03-09 06:00:00,
2013-03-08 22:05:00,39.0,36.0,29.24,WNW,292,0.0,-999.0,89,0.00,,,0.00,Rainwise IP-100,2013-03-09 06:05:00,
2013-03-08 22:10:00,38.8,36.0,29.24,WNW,292,2.3,-999.0,89,0.00,,,0.00,Rainwise IP-100,2013-03-09 06:10:00,
2013-03-08 22:15:00,38.6,37.0,29.24,WNW,292,1.4,-999.0,90,0.00,,,0.00,Rainwise IP-100,2013-03-09 06:15:00,
2013-03-08 22:20:00,38.7,37.0,29.24,WNW,292,2.3,-999.0,90,0.00,,,0.00,Rainwise IP-100,2013-03-09 06:20:00,
2013-03-08 22:25:00,39.0,37.0,29.24,WNW,292,1.9,-999.0,91,0.00,,,0.00,Rainwise IP-100,2013-03-09 06:25:00,
2013-03-08 22:30:00,39.0,37.0,29.24,WNW,292,0.0,-999.0,91,0.00,,,0.00,Rainwise IP-100,2013-03-09 06:30:00,
2013-03-08 22:35:00,38.7,37.0,29.25,North,360,0.0,-999.0,91,0.00,,,0.00,Rainwise IP-100,2013-03-09 06:35:00,
2013-03-08 22:40:00,38.2,36.0,29.24,North,360,0.0,-999.0,91,0.00,,,0.00,Rainwise IP-100,2013-03-09 06:40:00,
2013-03-08 22:45:00,37.9,36.0,29.24,North,360,0.0,-999.0,91,0.00,,,0.00,Rainwise IP-100,2013-03-09 06:45:00,
2013-03-08 22:50:00,37.7,36.0,29.24,North,360,0.0,-999.0,91,0.00,,,0.00,Rainwise IP-100,2013-03-09 06:50:00,
2013-03-08 22:52:00,37.6,36.0,29.25,North,360,0.0,-999.0,91,0.00,,,0.00,Rainwise IP-100,2013-03-09 06:52:00,
2013-03-08 22:57:00,37.7,36.0,29.25,North,360,0.0,-999.0,92,0.00,,,0.00,Rainwise IP-100,2013-03-09 06:57:00,
2013-03-08 23:02:00,37.5,36.0,29.25,WSW,247,3.5,-999.0,92,0.00,,,0.00,Rainwise IP-100,2013-03-09 07:02:00,
2013-03-08 23:07:00,37.1,35.0,29.25,WSW,247,2.6,-999.0,92,0.00,,,0.00,Rainwise IP-100,2013-03-09 07:07:00,
2013-03-08 23:12:00,37.5,36.0,29.26,WSW,247,0.0,-999.0,92,0.00,,,0.00,Rainwise IP-100,2013-03-09 07:12:00,
2013-03-08 23:17:00,38.2,36.0,29.26,SSE,157,1.6,-999.0,92,0.00,,,0.00,Rainwise IP-100,2013-03-09 07:17:00,
2013-03-08 23:22:00,38.2,36.0,29.26,SSW,202,4.0,-999.0,92,0.00,,,0.00,Rainwise IP-100,2013-03-09 07:22:00,
2013-03-08 23:24:00,38.1,36.0,29.26,WSW,247,3.0,-999.0,92,0.00,,,0.00,Rainwise IP-100,2013-03-09 07:24:00,
2013-03-08 23:29:00,38.5,37.0,29.27,NE,45,2.3,-999.0,92,0.00,,,0.00,Rainwise IP-100,2013-03-09 07:29:00,
2013-03-08 23:34:00,38.3,36.0,29.27,North,360,0.0,-999.0,91,0.00,,,0.00,Rainwise IP-100,2013-03-09 07:34:00,
2013-03-08 23:39:00,37.8,36.0,29.28,North,360,1.2,-999.0,92,0.00,,,0.00,Rainwise IP-100,2013-03-09 07:39:00,
2013-03-08 23:44:00,37.6,36.0,29.27,NNW,337,0.0,-999.0,92,0.00,,,0.00,Rainwise IP-100,2013-03-09 07:44:00,
2013-03-08 23:49:00,37.5,36.0,29.28,NNW,337,0.0,-999.0,92,0.00,,,0.00,Rainwise IP-100,2013-03-09 07:49:00,
2013-03-08 23:54:00,37.3,35.0,29.27,WSW,247,2.1,-999.0,93,0.00,,,0.00,Rainwise IP-100,2013-03-09 07:54:00,
2013-03-08 23:59:00,37.3,35.0,29.28,WSW,247,0.0,-999.0,93,0.00,,,0.00,Rainwise IP-100,2013-03-09 07:59:00,